Radiation Dose at Monitoring Post of Fukushima Daini Nuclear Power Station
Date,Time,MP-1(microSv/h),MP-2(microSv/h),MP-3(microSv/h),MP-4(microSv/h),MP-5(microSv/h),MP-6(microSv/h),MP-7(microSv/h),Wind Direction,Wind Velocity(m/s),Rain
2019/07/31,00:00,0.182,0.165,0.273,0.258,0.261,0.141,0.088,west-southwest,2.9,No
2019/07/31,00:10,0.183,0.165,0.272,0.263,0.265,0.141,0.087,southwest,1.2,No
2019/07/31,00:20,0.184,0.165,0.277,0.259,0.268,0.139,0.087,south,0.8,No
2019/07/31,00:30,0.182,0.166,0.276,0.259,0.266,0.140,0.087,southwest,1.3,No
2019/07/31,00:40,0.182,0.166,0.275,0.259,0.265,0.141,0.087,west-southwest,1.7,No
2019/07/31,00:50,0.184,0.165,0.273,0.261,0.262,0.141,0.088,west-northwest,1.5,No
2019/07/31,01:00,0.184,0.165,0.276,0.262,0.266,0.140,0.088,west-northwest,1.4,No
2019/07/31,01:10,0.182,0.167,0.278,0.260,0.267,0.140,0.087,west-northwest,0.9,No
2019/07/31,01:20,0.181,0.166,0.275,0.259,0.265,0.141,0.089,west-southwest,0.9,No
2019/07/31,01:30,0.184,0.164,0.274,0.259,0.264,0.140,0.089,west,1.2,No
2019/07/31,01:40,0.184,0.164,0.274,0.262,0.261,0.140,0.088,-,CALM,No
2019/07/31,01:50,0.183,0.166,0.277,0.260,0.266,0.141,0.088,-,CALM,No
2019/07/31,02:00,0.182,0.165,0.276,0.259,0.267,0.140,0.087,-,CALM,No
2019/07/31,02:10,0.184,0.165,0.274,0.259,0.266,0.140,0.089,west,1.0,No
2019/07/31,02:20,0.183,0.166,0.275,0.263,0.265,0.141,0.088,west-northwest,1.1,No
2019/07/31,02:30,0.183,0.166,0.278,0.260,0.264,0.141,0.088,west,0.9,No
2019/07/31,02:40,0.182,0.164,0.276,0.259,0.269,0.141,0.089,west,1.7,No
2019/07/31,02:50,0.184,0.166,0.274,0.259,0.266,0.140,0.088,west,2.7,No
2019/07/31,03:00,0.183,0.165,0.274,0.262,0.265,0.142,0.087,west,2.1,No
2019/07/31,03:10,0.182,0.165,0.278,0.261,0.262,0.141,0.087,west,2.1,No
2019/07/31,03:20,0.182,0.165,0.276,0.260,0.265,0.139,0.088,west,4.2,No
2019/07/31,03:30,0.184,0.166,0.272,0.258,0.267,0.140,0.088,west,3.9,No
2019/07/31,03:40,0.182,0.165,0.273,0.262,0.264,0.140,0.088,west,3.0,No
2019/07/31,03:50,0.182,0.164,0.277,0.260,0.263,0.140,0.087,west,3.5,No
2019/07/31,04:00,0.183,0.166,0.277,0.258,0.263,0.140,0.088,west,4.0,No
2019/07/31,04:10,0.183,0.165,0.274,0.258,0.266,0.141,0.088,west,3.5,No
2019/07/31,04:20,0.183,0.165,0.274,0.262,0.265,0.141,0.087,west,2.3,No
2019/07/31,04:30,0.182,0.166,0.278,0.262,0.264,0.140,0.088,west,2.3,No
2019/07/31,04:40,0.184,0.167,0.275,0.258,0.263,0.141,0.089,west-northwest,2.5,No
2019/07/31,04:50,0.184,0.165,0.273,0.260,0.267,0.141,0.088,west-northwest,2.2,No
2019/07/31,05:00,0.182,0.165,0.276,0.261,0.268,0.141,0.089,west,1.9,No
2019/07/31,05:10,0.183,0.166,0.278,0.261,0.264,0.142,0.089,west,1.6,No
2019/07/31,05:20,0.185,0.165,0.275,0.260,0.263,0.141,0.088,west,1.1,No
2019/07/31,05:30,0.182,0.165,0.274,0.260,0.266,0.139,0.088,west-southwest,1.3,No
2019/07/31,05:40,0.182,0.166,0.276,0.262,0.267,0.140,0.089,south,0.9,No
2019/07/31,05:50,0.185,0.167,0.278,0.261,0.266,0.141,0.087,south-southwest,1.0,No
2019/07/31,06:00,0.183,0.165,0.274,0.259,0.264,0.141,0.088,-,CALM,No
2019/07/31,06:10,0.182,0.165,0.274,0.258,0.262,0.140,0.089,-,CALM,No
2019/07/31,06:20,0.184,0.167,0.278,0.262,0.265,0.140,0.088,-,CALM,No
2019/07/31,06:30,0.185,0.166,0.278,0.262,0.267,0.141,0.088,-,CALM,No
2019/07/31,06:40,0.184,0.165,0.275,0.259,0.266,0.140,0.088,north-northeast,0.8,No
2019/07/31,06:50,0.183,0.166,0.274,0.259,0.263,0.140,0.088,north,1.6,No
2019/07/31,07:00,0.181,0.165,0.272,0.258,0.262,0.140,0.088,north-northeast,1.0,No
2019/07/31,07:10,0.181,0.164,0.277,0.261,0.263,0.141,0.088,northeast,1.2,No
2019/07/31,07:20,0.185,0.164,0.279,0.262,0.264,0.140,0.088,northwest,1.0,No
2019/07/31,07:30,0.183,0.164,0.276,0.261,0.264,0.140,0.088,west-southwest,0.7,No
2019/07/31,07:40,0.183,0.165,0.275,0.261,0.263,0.140,0.088,west,0.7,No
2019/07/31,07:50,0.183,0.166,0.275,0.259,0.263,0.141,0.087,-,CALM,No
2019/07/31,08:00,0.183,0.165,0.274,0.260,0.264,0.140,0.088,-,CALM,No
2019/07/31,08:10,0.181,0.166,0.274,0.260,0.266,0.142,0.088,south,0.6,No
2019/07/31,08:20,0.183,0.166,0.275,0.260,0.265,0.141,0.088,-,CALM,No
2019/07/31,08:30,0.183,0.166,0.274,0.260,0.267,0.141,0.089,south,1.2,No
2019/07/31,08:40,0.181,0.165,0.274,0.261,0.265,0.141,0.088,south,1.1,No
2019/07/31,08:50,0.182,0.166,0.273,0.262,0.266,0.141,0.088,south,1.6,No
2019/07/31,09:00,0.182,0.165,0.275,0.259,0.266,0.141,0.089,south-southeast,0.9,No
2019/07/31,09:10,0.182,0.165,0.275,0.260,0.266,0.141,0.088,east,0.8,No
2019/07/31,09:20,0.182,0.166,0.274,0.260,0.266,0.141,0.087,east,1.1,No
2019/07/31,09:30,0.183,0.166,0.274,0.260,0.265,0.140,0.088,east,0.9,No
2019/07/31,09:40,0.182,0.166,0.274,0.261,0.264,0.140,0.088,east,0.8,No
2019/07/31,09:50,0.183,0.165,0.274,0.261,0.266,0.140,0.088,east,1.0,No
2019/07/31,10:00,0.183,0.165,0.276,0.260,0.266,0.141,0.088,southeast,0.8,No
2019/07/31,10:10,0.183,0.165,0.276,0.260,0.266,0.141,0.087,-,CALM,No
2019/07/31,10:20,0.184,0.165,0.275,0.261,0.265,0.140,0.088,-,CALM,No
2019/07/31,10:30,0.182,0.164,0.274,0.261,0.265,0.140,0.088,-,CALM,No
2019/07/31,10:40,0.183,0.166,0.274,0.260,0.264,0.140,0.088,-,CALM,No
2019/07/31,10:50,0.182,0.164,0.275,0.260,0.264,0.140,0.087,-,CALM,No
2019/07/31,11:00,0.182,0.164,0.276,0.261,0.264,0.140,0.088,-,CALM,No
2019/07/31,11:10,0.182,0.166,0.275,0.261,0.265,0.141,0.088,-,CALM,No
2019/07/31,11:20,0.182,0.164,0.276,0.262,0.266,0.141,0.088,-,CALM,No
2019/07/31,11:30,0.183,0.164,0.275,0.261,0.266,0.140,0.088,-,CALM,No
2019/07/31,11:40,0.183,0.165,0.276,0.262,0.267,0.140,0.087,southeast,1.0,No
2019/07/31,11:50,0.183,0.165,0.276,0.261,0.267,0.139,0.088,southeast,1.8,No
2019/07/31,12:00,0.184,0.164,0.275,0.262,0.266,0.141,0.088,southeast,1.1,No
2019/07/31,12:10,0.183,0.165,0.276,0.261,0.266,0.139,0.088,southeast,0.6,No
2019/07/31,12:20,0.182,0.165,0.276,0.261,0.266,0.140,0.088,south-southeast,0.9,No
2019/07/31,12:30,0.183,0.166,0.276,0.261,0.266,0.141,0.088,-,CALM,No
2019/07/31,12:40,0.183,0.164,0.276,0.261,0.266,0.140,0.088,-,CALM,No
2019/07/31,12:50,0.182,0.165,0.277,0.261,0.265,0.140,0.087,-,CALM,No
2019/07/31,13:00,0.183,0.164,0.277,0.260,0.264,0.140,0.087,south-southeast,2.6,No
2019/07/31,13:10,0.183,0.165,0.277,0.260,0.266,0.141,0.087,south-southeast,2.0,No
2019/07/31,13:20,0.182,0.164,0.275,0.261,0.265,0.141,0.087,-,CALM,No
2019/07/31,13:30,0.182,0.165,0.277,0.260,0.265,0.140,0.088,south-southeast,1.8,No
2019/07/31,13:40,0.182,0.165,0.276,0.261,0.264,0.140,0.088,south-southeast,1.4,No
2019/07/31,13:50,0.183,0.165,0.276,0.262,0.264,0.141,0.088,south,2.2,No
2019/07/31,14:00,0.183,0.164,0.276,0.261,0.265,0.140,0.088,south,2.5,No
2019/07/31,14:10,0.183,0.166,0.276,0.260,0.267,0.141,0.087,south-southwest,1.2,No
2019/07/31,14:20,0.182,0.163,0.275,0.261,0.264,0.140,0.086,south-southwest,3.2,No
2019/07/31,14:30,0.183,0.165,0.275,0.261,0.264,0.141,0.088,south,3.8,No
2019/07/31,14:40,0.183,0.165,0.276,0.261,0.263,0.141,0.088,south,3.5,No
2019/07/31,14:50,0.182,0.165,0.275,0.261,0.265,0.139,0.087,south,3.3,No
2019/07/31,15:00,0.182,0.166,0.275,0.261,0.265,0.140,0.087,south-southeast,2.5,No
2019/07/31,15:10,0.183,0.165,0.276,0.261,0.265,0.140,0.086,south-southeast,2.9,No
2019/07/31,15:20,0.183,0.166,0.276,0.261,0.263,0.140,0.087,south-southeast,2.4,No
2019/07/31,15:30,0.182,0.165,0.275,0.260,0.264,0.140,0.087,south-southeast,1.1,No
2019/07/31,15:40,0.183,0.165,0.274,0.260,0.264,0.140,0.088,-,CALM,No
2019/07/31,15:50,0.182,0.165,0.276,0.260,0.263,0.140,0.087,south,4.1,No
2019/07/31,16:00,0.181,0.165,0.275,0.261,0.265,0.140,0.087,south,3.6,No
2019/07/31,16:10,0.181,0.165,0.275,0.260,0.264,0.140,0.087,south,3.7,No
2019/07/31,16:20,0.183,0.164,0.275,0.260,0.266,0.140,0.087,south,4.4,No
2019/07/31,16:30,0.182,0.164,0.275,0.261,0.264,0.140,0.087,south,4.5,No
2019/07/31,16:40,0.182,0.165,0.276,0.260,0.265,0.141,0.088,south,5.2,No
2019/07/31,16:50,0.182,0.164,0.275,0.261,0.266,0.141,0.087,south,4.5,No
2019/07/31,17:00,0.182,0.164,0.275,0.261,0.265,0.140,0.087,south,4.1,No
2019/07/31,17:10,0.182,0.164,0.276,0.260,0.264,0.140,0.087,south,5.9,No
2019/07/31,17:20,0.182,0.165,0.276,0.260,0.264,0.141,0.087,south,5.1,No
2019/07/31,17:30,0.180,0.163,0.275,0.260,0.265,0.141,0.086,south,5.4,No
2019/07/31,17:40,0.181,0.164,0.275,0.259,0.263,0.140,0.087,south,5.5,No
2019/07/31,17:50,0.184,0.165,0.275,0.260,0.263,0.141,0.087,south,5.4,No
2019/07/31,18:00,0.184,0.163,0.275,0.264,0.263,0.141,0.088,south,5.3,No
2019/07/31,18:10,0.183,0.165,0.280,0.264,0.263,0.141,0.087,south,5.3,No
2019/07/31,18:20,0.182,0.166,0.280,0.262,0.264,0.140,0.087,south,4.8,No
2019/07/31,18:30,0.183,0.166,0.277,0.262,0.263,0.140,0.087,south-southwest,3.2,No
2019/07/31,18:40,0.183,0.165,0.277,0.259,0.269,0.140,0.087,south-southwest,4.0,No
2019/07/31,18:50,0.185,0.164,0.276,0.261,0.269,0.142,0.088,south-southwest,3.9,No
2019/07/31,19:00,0.185,0.165,0.276,0.264,0.267,0.141,0.087,south-southwest,4.5,No
2019/07/31,19:10,0.183,0.166,0.279,0.264,0.265,0.140,0.088,south-southwest,2.8,No
2019/07/31,19:20,0.182,0.167,0.280,0.262,0.266,0.141,0.087,south-southwest,3.4,No
2019/07/31,19:30,0.183,0.165,0.279,0.262,0.264,0.142,0.088,south-southwest,3.7,No
2019/07/31,19:40,0.185,0.164,0.278,0.260,0.267,0.142,0.088,south,3.3,No
2019/07/31,19:50,0.186,0.166,0.276,0.263,0.269,0.142,0.087,south-southwest,3.9,No
2019/07/31,20:00,0.184,0.167,0.277,0.265,0.267,0.141,0.088,southwest,4.0,No
2019/07/31,20:10,0.183,0.166,0.282,0.264,0.266,0.142,0.089,west-southwest,2.1,No
2019/07/31,20:20,0.184,0.165,0.279,0.263,0.264,0.142,0.089,west,1.8,No
2019/07/31,20:30,0.186,0.167,0.278,0.261,0.263,0.141,0.088,west,1.4,No
2019/07/31,20:40,0.185,0.167,0.277,0.262,0.268,0.141,0.088,west,2.1,No
2019/07/31,20:50,0.184,0.166,0.277,0.266,0.269,0.142,0.088,west,4.1,No
2019/07/31,21:00,0.182,0.166,0.282,0.265,0.267,0.142,0.089,west-southwest,1.6,No
2019/07/31,21:10,0.185,0.167,0.279,0.261,0.264,0.142,0.089,west,1.7,No
2019/07/31,21:20,0.185,0.167,0.278,0.262,0.265,0.142,0.090,west-southwest,2.7,No
2019/07/31,21:30,0.183,0.166,0.276,0.262,0.267,0.141,0.089,west,3.9,No
2019/07/31,21:40,0.182,0.165,0.277,0.265,0.267,0.142,0.090,west,3.6,No
2019/07/31,21:50,0.185,0.167,0.279,0.263,0.266,0.141,0.089,west,4.2,No
2019/07/31,22:00,0.184,0.167,0.279,0.262,0.264,0.141,0.088,west,3.1,No
2019/07/31,22:10,0.184,0.166,0.276,0.260,0.263,0.141,0.088,west-northwest,2.7,No
2019/07/31,22:20,0.183,0.166,0.275,0.262,0.267,0.140,0.088,northwest,1.7,No
2019/07/31,22:30,0.185,0.166,0.281,0.264,0.267,0.141,0.089,north-northwest,1.2,No
2019/07/31,22:40,0.184,0.167,0.280,0.263,0.267,0.141,0.088,north,1.3,No
2019/07/31,22:50,0.185,0.166,0.278,0.261,0.266,0.142,0.088,northwest,1.7,No
2019/07/31,23:00,0.181,0.165,0.275,0.260,0.263,0.141,0.089,west-northwest,1.2,No
2019/07/31,23:10,0.184,0.167,0.279,0.265,0.269,0.140,0.087,west,0.7,No
2019/07/31,23:20,0.186,0.167,0.281,0.263,0.267,0.142,0.088,-,CALM,No
2019/07/31,23:30,0.183,0.165,0.278,0.261,0.265,0.142,0.088,-,CALM,No
2019/07/31,23:40,0.183,0.166,0.275,0.259,0.263,0.141,0.089,west-southwest,1.8,No
2019/07/31,23:50,0.185,0.166,0.277,0.264,0.264,0.140,0.087,west,1.8,No
